TimeMST,TemperatureF,Dew PointF,Humidity,Sea Level PressureIn,VisibilityMPH,Wind Direction,Wind SpeedMPH,Gust SpeedMPH,PrecipitationIn,Events,Conditions,WindDirDegrees,DateUTC
12:53 AM,37.0,30.0,76,30.08,10.0,South,4.6,-,N/A,,Clear,180,2014-02-08 07:53:00
1:53 AM,37.9,32.0,79,30.09,10.0,SSW,5.8,-,N/A,,Clear,200,2014-02-08 08:53:00
2:53 AM,37.0,30.9,79,30.08,10.0,SSE,6.9,-,N/A,,Clear,160,2014-02-08 09:53:00
3:53 AM,35.1,28.9,78,30.07,10.0,South,6.9,-,N/A,,Clear,190,2014-02-08 10:53:00
4:53 AM,34.0,28.9,82,30.09,10.0,SSE,3.5,-,N/A,,Clear,150,2014-02-08 11:53:00
5:53 AM,30.9,26.1,82,30.12,10.0,Calm,Calm,-,N/A,,Clear,0,2014-02-08 12:53:00
6:53 AM,28.9,25.0,85,30.15,10.0,SW,5.8,-,N/A,,Clear,220,2014-02-08 13:53:00
7:53 AM,28.9,25.0,85,30.18,10.0,Calm,Calm,-,N/A,,Clear,0,2014-02-08 14:53:00
8:53 AM,35.1,28.9,78,30.20,10.0,Calm,Calm,-,N/A,,Clear,0,2014-02-08 15:53:00
9:53 AM,44.1,30.9,60,30.18,10.0,SSE,3.5,-,N/A,,Clear,150,2014-02-08 16:53:00
10:53 AM,48.0,28.9,48,30.17,10.0,ESE,8.1,-,N/A,,Clear,120,2014-02-08 17:53:00
11:53 AM,52.0,28.0,40,30.17,10.0,NNW,3.5,-,N/A,,Clear,340,2014-02-08 18:53:00
12:53 PM,54.0,28.0,37,30.14,10.0,Variable,4.6,-,N/A,,Clear,0,2014-02-08 19:53:00
1:53 PM,57.9,28.0,32,30.09,10.0,Variable,3.5,-,N/A,,Clear,0,2014-02-08 20:53:00
2:53 PM,60.1,28.9,31,30.07,10.0,Calm,Calm,-,N/A,,Clear,0,2014-02-08 21:53:00
3:53 PM,59.0,30.9,35,30.07,10.0,ESE,8.1,-,N/A,,Clear,110,2014-02-08 22:53:00
4:53 PM,57.0,30.0,36,30.08,10.0,SSW,10.4,-,N/A,,Clear,210,2014-02-08 23:53:00
5:53 PM,54.0,30.0,40,30.10,10.0,SW,6.9,-,N/A,,Clear,220,2014-02-09 00:53:00
6:53 PM,50.0,30.0,46,30.14,10.0,SW,9.2,-,N/A,,Partly Cloudy,230,2014-02-09 01:53:00
7:53 PM,48.9,30.9,50,30.15,10.0,Variable,3.5,-,N/A,,Clear,0,2014-02-09 02:53:00
8:53 PM,46.9,30.9,54,30.16,10.0,SSW,6.9,-,N/A,,Mostly Cloudy,200,2014-02-09 03:53:00
9:53 PM,46.0,30.9,56,30.13,10.0,SSW,11.5,-,N/A,,Clear,210,2014-02-09 04:53:00
10:53 PM,44.1,30.9,60,30.14,10.0,SSW,9.2,-,N/A,,Clear,210,2014-02-09 05:53:00
11:53 PM,41.0,30.0,65,30.13,10.0,ESE,5.8,-,N/A,,Clear,110,2014-02-09 06:53:00